Home   Weather   Breda   Past weeks

Flag for Netherlands Past Weather in Breda, Netherlands — Yesterday and Last 2 Weeks

Now
59 °F

High level clouds.


Feels Like: 59 °F
Forecast: 51 / 77 °F
Wind: 1 mph from Northeast

Location: Gilze-Rijen

Current Time: Aug 30, 2016 at 10:50:49 PM

Latest Report: Aug 30, 2016 at 10:25 PM


Visibility: N/A

Pressure: 30.21 "Hg

Humidity: 82%

Dew Point: 54 °F

Location of BredaLocation

Past Weather in Breda — Graph

°F

Breda Temperature Yesterday

Maximum temperature yesterday: 70 °F (at 1:55 PM)
Minimum temperature yesterday: 54 °F (at 11:55 PM)
Average temperature yesterday: 64 °F

High & Low Weather Summary for the Past Weeks

 TemperatureHumidityPressure
High91 °F (Aug 25, 4:04 PM)100% (Aug 16, 3:25 AM)30.33 "Hg (Aug 16, 3:25 AM)
Low46 °F (Aug 30, 6:55 AM)33% (Aug 24, 4:25 PM)29.74 "Hg (Aug 19, 6:55 PM)
Average68 °F74%30.02 "Hg
* Reported Aug 15 9:25 PM — Aug 30 9:55 PM, Breda, Weather by CustomWeather, © 2016

Note: Actual official high and low records may vary slightly from our data, if they occured in-between our weather recording intervals... More about our weather records

Advertising

Breda Weather History for the Previous 24 Hours

Scroll right to see more
 ConditionsComfort  
Time TempWeatherWind HumidityBarometerVisibility
9:55 PM
Tue, Aug 30
61 °FPassing clouds.1 mph77%30.21 "HgN/A
9:25 PM63 °FOvercast.1 mph73%30.21 "HgN/A
8:55 PM64 °FOvercast.3 mph68%30.21 "HgN/A
8:25 PM68 °FPartly sunny.5 mph60%30.21 "HgN/A
7:55 PM70 °FHigh level clouds.3 mph53%30.21 "HgN/A
7:25 PM72 °FHigh level clouds.6 mph50%30.21 "HgN/A
6:55 PM73 °FHigh level clouds.6 mph44%30.21 "HgN/A
6:25 PM73 °FPassing clouds.5 mph44%30.24 "HgN/A
5:55 PM73 °FMild.6 mph44%30.24 "HgN/A
5:25 PM75 °FMild.7 mph41%30.24 "HgN/A
4:55 PM75 °FMild.6 mph41%30.24 "HgN/A
4:25 PM75 °FMild.3 mph44%30.24 "HgN/A
3:55 PM73 °FMild.6 mph44%30.27 "HgN/A
3:25 PM73 °FMild.5 mph41%30.27 "HgN/A
2:55 PM73 °FMild.3 mph44%30.27 "HgN/A
2:25 PM73 °FMild.3 mph44%30.30 "HgN/A
1:55 PM73 °FMild.5 mph44%30.30 "HgN/A
1:25 PM72 °FMild.5 mph47%30.30 "HgN/A
12:55 PM72 °FMild.6 mph47%30.30 "HgN/A
12:25 PM70 °FMild.5 mph57%30.30 "HgN/A
11:55 AM70 °FMild.3 mph53%30.33 "HgN/A
11:25 AM68 °FMild.5 mph60%30.33 "HgN/A
10:55 AM68 °FMild.2 mph64%30.33 "HgN/A
10:25 AM66 °FMild.2 mph64%30.30 "HgN/A
9:55 AM66 °FScattered clouds.1 mph68%30.30 "HgN/A
9:25 AM63 °FMild.2 mph77%30.30 "HgN/A
8:55 AM59 °FCool.No wind88%30.30 "HgN/A
8:25 AM54 °FCool.No wind100%30.30 "HgN/A
7:55 AM50 °FCool.1 mph100%30.27 "HgN/A
7:25 AM48 °FCool.No wind100%30.27 "HgN/A
6:55 AM46 °FCool.No wind100%30.27 "HgN/A
6:25 AM48 °FFog.1 mph100%30.27 "Hg1 mi
5:59 AM48 °FFog.1 mph100%30.27 "Hg3 mi
5:55 AM48 °FCool.1 mph94%30.27 "HgN/A
5:25 AM48 °FCool.1 mph100%30.27 "HgN/A
5:03 AM48 °FCool.1 mph94%30.27 "HgN/A
4:25 AM48 °FFog.No wind94%30.27 "Hg1 mi
3:55 AM48 °FCool.1 mph100%30.27 "HgN/A
3:25 AM50 °FCool.1 mph94%30.27 "HgN/A
2:55 AM50 °FCool.1 mph100%30.27 "HgN/A
2:25 AM50 °FFog.1 mph100%30.27 "Hg2 mi
1:55 AM52 °FPassing clouds.1 mph94%30.27 "HgN/A
1:25 AM52 °FPassing clouds.2 mph94%30.27 "HgN/A
12:55 AM52 °FPassing clouds.No wind100%30.27 "HgN/A
12:25 AM52 °FCool.No wind100%30.27 "HgN/A
11:55 PM
Mon, Aug 29
54 °FHigh level clouds.No wind100%30.24 "HgN/A
11:25 PM55 °FPassing clouds.No wind94%30.24 "HgN/A
10:55 PM57 °FHigh level clouds.3 mph88%30.24 "HgN/A
10:25 PM61 °FHigh level clouds.6 mph77%30.24 "HgN/A
Weather by CustomWeather, © 2016

See weather overviewHow to use our weather pages